Regional Weather Roundup
Issued by NWS

Home | Current Version | Previous Version | Text Only | Print | Product List | Glossary On
Versions: 1 2 3 4 5 6 7 8 9 10 11 12 13 14 15 16 17 18 19 20 21 22 23 24 25 26 27 28 29 30 31 32 33 34 35 36 37 38 39 40 41 42 43 44 45 46 47 48 49 50
000
ASUS43 KLMK 271210
RWRKY
KENTUCKY REGIONAL WEATHER ROUNDUP
NATIONAL WEATHER SERVICE LOUISVILLE KY
700 AM EST MON FEB 27 2017

NOTE "FAIR" INDICATES FEW OR NO CLOUDS BELOW 12,000 FEET
WITH NO SIGNIFICANT WEATHER AND/OR OBSTRUCTIONS TO VISIBILITY.

KYZ001>023-026-027-061>063-070>075-271300-
WESTERN AND SOUTH CENTRAL KENTUCKY

CITY           SKY/WX    TMP DP  RH WIND       PRES   REMARKS
PADUCAH        CLOUDY    46  41  82 E5        30.13R
HENDERSON      CLOUDY    43  37  81 E5        30.17R
OWENSBORO      CLOUDY    44  41  89 SE7       30.19S
HOPKINSVILLE   CLOUDY    46  45  94 S8        30.14F
BOWLING GREEN  LGT RAIN  45  43  93 E3        30.20F
GLASGOW        LGT RAIN  43  43 100 E3        30.21S
$$

KYZ024-025-028>034-038-045-046-053-271300-
NORTH CENTRAL KENTUCKY

CITY           SKY/WX    TMP DP  RH WIND       PRES   REMARKS
LOUISVILLE/SDF LGT RAIN  44  40  85 SE6       30.23S
LOUISVILLE/LOU LGT RAIN  44  40  85 SE5       30.24S
FORT KNOX      LGT RAIN  43  41  93 E6        30.19F
$$

KYZ035>037-039>044-047>052-055>060-089>105-271300-
NORTHEAST KENTUCKY

CITY           SKY/WX    TMP DP  RH WIND       PRES   REMARKS
LEXINGTON      LGT RAIN  42  38  85 S5        30.26S
COVINGTON      LGT RAIN  42  34  73 S5        30.23R
FRANKFORT      LGT RAIN  43  38  82 SE3       30.24S
$$

KYZ054-064>069-076>088-106>120-271300-
SOUTHEAST KENTUCKY

CITY           SKY/WX    TMP DP  RH WIND       PRES   REMARKS
JACKSON        CLOUDY    41  20  43 NE3       30.28R
LONDON         CLOUDY    43  31  62 CALM      30.28R
SOMERSET       CLOUDY    41  32  70 CALM      30.28R
MIDDLESBORO    PTCLDY    34  31  88 CALM      30.31R
MONTICELLO     CLOUDY    43  33  68 N12       30.27F
$$




USA.gov is the U.S. government's official web portal to all federal, state and local government web resources and services.